TimeCST,TemperatureF,Dew PointF,Humidity,Sea Level PressureIn,VisibilityMPH,Wind Direction,Wind SpeedMPH,Gust SpeedMPH,PrecipitationIn,Events,Conditions,WindDirDegrees,DateUTC
12:53 AM,42.1,39.9,92,30.08,7.0,NNW,18.4,27.6,0.18,Rain,Rain,330,2013-11-26 06:53:00
1:36 AM,42.8,39.2,87,30.07,7.0,NNW,17.3,26.5,0.11,Rain,Rain,340,2013-11-26 07:36:00
1:53 AM,41.0,39.9,96,30.05,6.0,North,17.3,23.0,0.17,Rain,Heavy Rain,350,2013-11-26 07:53:00
2:00 AM,41.0,39.2,93,30.07,6.0,NNW,21.9,29.9,0.02,Rain,Heavy Rain,340,2013-11-26 08:00:00
2:53 AM,41.0,39.0,93,30.10,9.0,NW,13.8,-,0.12,Rain,Light Rain,320,2013-11-26 08:53:00
3:53 AM,41.0,39.0,93,30.11,10.0,NNW,16.1,-,0.00,,Overcast,330,2013-11-26 09:53:00
4:53 AM,41.0,39.0,93,30.13,10.0,NW,17.3,-,N/A,,Overcast,310,2013-11-26 10:53:00
5:53 AM,41.0,39.0,93,30.12,9.0,NW,16.1,-,N/A,,Overcast,320,2013-11-26 11:53:00
6:53 AM,41.0,37.9,89,30.14,10.0,NW,15.0,-,N/A,,Overcast,320,2013-11-26 12:53:00
7:53 AM,39.9,37.9,93,30.17,8.0,NW,20.7,27.6,N/A,,Overcast,320,2013-11-26 13:53:00
8:25 AM,41.0,37.4,87,30.17,10.0,NW,19.6,26.5,N/A,,Overcast,320,2013-11-26 14:25:00
8:53 AM,42.1,37.9,85,30.17,10.0,NNW,17.3,26.5,N/A,,Overcast,330,2013-11-26 14:53:00
9:53 AM,42.1,37.0,82,30.19,10.0,NW,15.0,25.3,N/A,,Overcast,320,2013-11-26 15:53:00
10:53 AM,42.1,37.0,82,30.19,10.0,NW,19.6,-,N/A,,Overcast,320,2013-11-26 16:53:00
11:45 AM,42.8,39.2,87,30.18,7.0,NW,17.3,28.8,0.00,,Overcast,320,2013-11-26 17:45:00
11:53 AM,42.1,39.0,89,30.18,5.0,NW,19.6,27.6,0.00,Rain,Light Rain,320,2013-11-26 17:53:00
12:23 PM,42.8,39.2,87,30.18,9.0,NW,19.6,29.9,0.00,,Overcast,320,2013-11-26 18:23:00
12:53 PM,43.0,37.9,82,30.17,9.0,NW,19.6,28.8,0.00,,Overcast,310,2013-11-26 18:53:00
1:53 PM,44.1,37.9,79,30.17,10.0,NW,19.6,28.8,N/A,,Overcast,310,2013-11-26 19:53:00
2:53 PM,46.0,37.9,73,30.17,10.0,NW,16.1,-,N/A,,Overcast,320,2013-11-26 20:53:00
3:53 PM,46.9,39.0,74,30.19,10.0,NW,20.7,25.3,N/A,,Overcast,320,2013-11-26 21:53:00
4:53 PM,46.9,37.9,71,30.20,10.0,NNW,13.8,-,N/A,,Overcast,330,2013-11-26 22:53:00
5:53 PM,44.1,37.9,79,30.22,10.0,NW,9.2,-,N/A,,Scattered Clouds,320,2013-11-26 23:53:00
6:53 PM,46.0,39.0,76,30.24,10.0,NW,9.2,-,N/A,,Overcast,310,2013-11-27 00:53:00
7:53 PM,44.1,37.9,79,30.27,10.0,NW,8.1,-,N/A,,Mostly Cloudy,310,2013-11-27 01:53:00
8:53 PM,41.0,37.9,89,30.28,10.0,WNW,5.8,-,N/A,,Clear,290,2013-11-27 02:53:00
9:53 PM,39.9,37.9,93,30.30,10.0,WNW,6.9,-,N/A,,Clear,300,2013-11-27 03:53:00
10:53 PM,41.0,37.0,86,30.32,10.0,WNW,10.4,-,N/A,,Clear,290,2013-11-27 04:53:00
11:53 PM,39.9,36.0,86,30.32,10.0,NW,10.4,-,N/A,,Clear,320,2013-11-27 05:53:00